User: anonymous   Login
Location: Newark
(44.1667°N, 8.2500°E)
Time: 08:57:13
(UTC+00:00)
Language:

deb Explorer IX - Orbit

View from above orbital plane
View from above orbital plane
View from above satellite
View from above satellite

Ground track
Ground track

The orbit data is extracted from the following two-line orbital elements,

1    85U 61004C   19342.13890998  .00001848  00000-0  41862-3 0  9995
2    85  38.7709 281.5564 0388300 298.0164  58.1815 14.20028170903726
Epoch (UTC): 08 December 2019 03:20:01
Eccentricity: 0.0388300
inclination: 38.7709°
perigee height: 545 km
apogee height: 1105 km
right ascension of ascending node: 281.5564°
argument of perigee: 298.0164°
revolutions per day: 14.20028170
mean anomaly at epoch: 58.1815°
orbit number at epoch: 90372

The dashed part of the orbit path shows where the satellite is in the earth's shadow,  

DLR